Year,Month,Day,Hour,Minute,Value (Times are PST for temperature in C)
2009,08,31,00,00,15.70
2009,08,31,00,01,15.70
2009,08,31,00,02,15.70
2009,08,31,00,03,15.70
2009,08,31,00,04,15.60
2009,08,31,00,05,15.60
2009,08,31,00,06,15.60
2009,08,31,00,07,15.60
2009,08,31,00,08,15.60
2009,08,31,00,09,15.50
2009,08,31,00,10,15.50
2009,08,31,00,11,15.50
2009,08,31,00,12,15.50
2009,08,31,00,13,15.50
2009,08,31,00,14,15.50
2009,08,31,00,15,15.40
2009,08,31,00,16,15.40
2009,08,31,00,17,15.40
2009,08,31,00,18,15.40
2009,08,31,00,19,15.40
2009,08,31,00,20,15.40
2009,08,31,00,21,15.30
2009,08,31,00,22,15.30
2009,08,31,00,23,15.30
2009,08,31,00,24,15.30
2009,08,31,00,25,15.30
2009,08,31,00,26,15.20
2009,08,31,00,27,15.20
2009,08,31,00,28,15.20
2009,08,31,00,29,15.20
2009,08,31,00,30,15.20
2009,08,31,00,31,15.10
2009,08,31,00,32,15.10
2009,08,31,00,33,15.10
2009,08,31,00,34,15.00
2009,08,31,00,35,15.00
2009,08,31,00,36,15.00
2009,08,31,00,37,15.00
2009,08,31,00,38,15.00
2009,08,31,00,39,15.00
2009,08,31,00,40,15.00
2009,08,31,00,41,15.00
2009,08,31,00,42,15.00
2009,08,31,00,43,15.00
2009,08,31,00,44,15.00
2009,08,31,00,45,15.00
2009,08,31,00,46,15.00
2009,08,31,00,47,15.00
2009,08,31,00,48,15.00
2009,08,31,00,49,15.00
2009,08,31,00,50,15.00
2009,08,31,00,51,15.00
2009,08,31,00,52,15.00
2009,08,31,00,53,15.00
2009,08,31,00,54,15.00
2009,08,31,00,55,15.00
2009,08,31,00,56,15.00
2009,08,31,00,57,15.00
2009,08,31,00,58,15.00
2009,08,31,00,59,14.90
2009,08,31,01,00,14.90
2009,08,31,01,01,14.90
2009,08,31,01,02,14.80
2009,08,31,01,03,14.80
2009,08,31,01,04,14.80
2009,08,31,01,05,14.80
2009,08,31,01,06,14.80
2009,08,31,01,07,14.80
2009,08,31,01,08,14.80
2009,08,31,01,09,14.80
2009,08,31,01,10,14.80
2009,08,31,01,11,14.80
2009,08,31,01,12,14.80
2009,08,31,01,13,14.80
2009,08,31,01,14,14.80
2009,08,31,01,15,14.80
2009,08,31,01,16,14.80
2009,08,31,01,17,14.80
2009,08,31,01,18,14.80
2009,08,31,01,19,14.80
2009,08,31,01,20,14.80
2009,08,31,01,21,14.80
2009,08,31,01,22,14.80
2009,08,31,01,23,14.80
2009,08,31,01,24,14.80
2009,08,31,01,25,14.80
2009,08,31,01,26,14.70
2009,08,31,01,27,14.70
2009,08,31,01,28,14.70
2009,08,31,01,29,14.70
2009,08,31,01,30,14.70
2009,08,31,01,31,14.70
2009,08,31,01,32,14.70
2009,08,31,01,33,14.70
2009,08,31,01,34,14.70
2009,08,31,01,35,14.70
2009,08,31,01,36,14.70
2009,08,31,01,37,14.70
2009,08,31,01,38,14.70
2009,08,31,01,39,14.70
2009,08,31,01,40,14.70
2009,08,31,01,41,14.70
2009,08,31,01,42,14.70
2009,08,31,01,43,14.70
2009,08,31,01,44,14.70
2009,08,31,01,45,14.70
2009,08,31,01,46,14.70
2009,08,31,01,47,14.70
2009,08,31,01,48,14.70
2009,08,31,01,49,14.70
2009,08,31,01,50,14.70
2009,08,31,01,51,14.60
2009,08,31,01,52,14.60
2009,08,31,01,53,14.60
2009,08,31,01,54,14.60
2009,08,31,01,55,14.60
2009,08,31,01,56,14.60
2009,08,31,01,57,14.50
2009,08,31,01,58,14.50
2009,08,31,01,59,14.50
2009,08,31,02,00,14.50
2009,08,31,02,01,14.50
2009,08,31,02,02,14.50
2009,08,31,02,03,14.50
2009,08,31,02,04,14.50
2009,08,31,02,05,14.50
2009,08,31,02,06,14.50
2009,08,31,02,07,14.50
2009,08,31,02,08,14.50
2009,08,31,02,09,14.50
2009,08,31,02,10,14.50
2009,08,31,02,11,14.50
2009,08,31,02,12,14.50
2009,08,31,02,13,14.50
2009,08,31,02,14,14.50
2009,08,31,02,15,14.50
2009,08,31,02,16,14.50
2009,08,31,02,17,14.50
2009,08,31,02,18,14.50
2009,08,31,02,19,14.40
2009,08,31,02,20,14.40
2009,08,31,02,21,14.40
2009,08,31,02,22,14.40
2009,08,31,02,23,14.40
2009,08,31,02,24,14.40
2009,08,31,02,25,14.40
2009,08,31,02,26,14.40
2009,08,31,02,27,14.40
2009,08,31,02,28,14.40
2009,08,31,02,29,14.30
2009,08,31,02,30,14.30
2009,08,31,02,31,14.30
2009,08,31,02,32,14.30
2009,08,31,02,33,14.30
2009,08,31,02,34,14.30
2009,08,31,02,35,14.30
2009,08,31,02,36,14.30
2009,08,31,02,37,14.30
2009,08,31,02,38,14.30
2009,08,31,02,39,14.30
2009,08,31,02,40,14.30
2009,08,31,02,41,14.30
2009,08,31,02,42,14.30
2009,08,31,02,43,14.30
2009,08,31,02,44,14.30
2009,08,31,02,45,14.30
2009,08,31,02,46,14.30
2009,08,31,02,47,14.30
2009,08,31,02,48,14.30
2009,08,31,02,49,14.30
2009,08,31,02,50,14.30
2009,08,31,02,51,14.30
2009,08,31,02,52,14.30
2009,08,31,02,53,14.30
2009,08,31,02,54,14.30
2009,08,31,02,55,14.30
2009,08,31,02,56,14.30
2009,08,31,02,57,14.30
2009,08,31,02,58,14.30
2009,08,31,02,59,14.30
2009,08,31,03,00,14.30
2009,08,31,03,01,14.30
2009,08,31,03,02,14.30
2009,08,31,03,03,14.30
2009,08,31,03,04,14.30
2009,08,31,03,05,14.30
2009,08,31,03,06,14.30
2009,08,31,03,07,14.20
2009,08,31,03,08,14.30
2009,08,31,03,09,14.30
2009,08,31,03,10,14.30
2009,08,31,03,11,14.30
2009,08,31,03,12,14.30
2009,08,31,03,13,14.30
2009,08,31,03,14,14.30
2009,08,31,03,15,14.30
2009,08,31,03,16,14.30
2009,08,31,03,17,14.30
2009,08,31,03,18,14.30
2009,08,31,03,19,14.30
2009,08,31,03,20,14.30
2009,08,31,03,21,14.30
2009,08,31,03,22,14.30
2009,08,31,03,23,14.30
2009,08,31,03,24,14.30
2009,08,31,03,25,14.30
2009,08,31,03,26,14.30
2009,08,31,03,27,14.30
2009,08,31,03,28,14.30
2009,08,31,03,29,14.30
2009,08,31,03,30,14.30
2009,08,31,03,31,14.30
2009,08,31,03,32,14.30
2009,08,31,03,33,14.30
2009,08,31,03,34,14.30
2009,08,31,03,35,14.30
2009,08,31,03,36,14.30
2009,08,31,03,37,14.30
2009,08,31,03,38,14.30
2009,08,31,03,39,14.30
2009,08,31,03,40,14.30
2009,08,31,03,41,14.30
2009,08,31,03,42,14.30
2009,08,31,03,43,14.20
2009,08,31,03,44,14.20
2009,08,31,03,45,14.20
2009,08,31,03,46,14.20
2009,08,31,03,47,14.20
2009,08,31,03,48,14.20
2009,08,31,03,49,14.20
2009,08,31,03,50,14.20
2009,08,31,03,51,14.20
2009,08,31,03,52,14.20
2009,08,31,03,53,14.20
2009,08,31,03,54,14.20
2009,08,31,03,55,14.20
2009,08,31,03,56,14.20
2009,08,31,03,57,14.20
2009,08,31,03,58,14.20
2009,08,31,03,59,14.20
2009,08,31,04,00,14.20
2009,08,31,04,01,14.20
2009,08,31,04,02,14.20
2009,08,31,04,03,14.20
2009,08,31,04,04,14.10
2009,08,31,04,05,14.10
2009,08,31,04,06,14.10
2009,08,31,04,07,14.10
2009,08,31,04,08,14.10
2009,08,31,04,09,14.10
2009,08,31,04,10,14.10
2009,08,31,04,11,14.00
2009,08,31,04,12,14.00
2009,08,31,04,13,14.00
2009,08,31,04,14,14.00
2009,08,31,04,15,14.00
2009,08,31,04,16,14.00
2009,08,31,04,17,13.90
2009,08,31,04,18,13.90
2009,08,31,04,19,13.90
2009,08,31,04,20,13.90
2009,08,31,04,21,13.90
2009,08,31,04,22,13.90
2009,08,31,04,23,13.90
2009,08,31,04,24,13.90
2009,08,31,04,25,13.80
2009,08,31,04,26,13.80
2009,08,31,04,27,13.80
2009,08,31,04,28,13.80
2009,08,31,04,29,13.80
2009,08,31,04,30,13.80
2009,08,31,04,31,13.80
2009,08,31,04,32,13.80
2009,08,31,04,33,13.80
2009,08,31,04,34,13.80
2009,08,31,04,35,13.80
2009,08,31,04,36,13.80
2009,08,31,04,37,13.80
2009,08,31,04,38,13.80
2009,08,31,04,39,13.80
2009,08,31,04,40,13.80
2009,08,31,04,41,13.80
2009,08,31,04,42,13.80
2009,08,31,04,43,13.80
2009,08,31,04,44,13.80
2009,08,31,04,45,13.80
2009,08,31,04,46,13.80
2009,08,31,04,47,13.80
2009,08,31,04,48,13.80
2009,08,31,04,49,13.80
2009,08,31,04,50,13.80
2009,08,31,04,51,13.80
2009,08,31,04,52,13.80
2009,08,31,04,53,13.80
2009,08,31,04,54,13.80
2009,08,31,04,55,13.80
2009,08,31,04,56,13.80
2009,08,31,04,57,13.80
2009,08,31,04,58,13.70
2009,08,31,04,59,13.70
2009,08,31,05,00,13.70
2009,08,31,05,01,13.70
2009,08,31,05,02,13.70
2009,08,31,05,03,13.70
2009,08,31,05,04,13.60
2009,08,31,05,05,13.60
2009,08,31,05,06,13.60
2009,08,31,05,07,13.60
2009,08,31,05,08,13.60
2009,08,31,05,09,13.60
2009,08,31,05,10,13.60
2009,08,31,05,11,13.60
2009,08,31,05,12,13.60
2009,08,31,05,13,13.60
2009,08,31,05,14,13.60
2009,08,31,05,15,13.50
2009,08,31,05,16,13.50
2009,08,31,05,17,13.50
2009,08,31,05,18,13.50
2009,08,31,05,19,13.50
2009,08,31,05,20,13.50
2009,08,31,05,21,13.40
2009,08,31,05,22,13.40
2009,08,31,05,23,13.40
2009,08,31,05,24,13.40
2009,08,31,05,25,13.40
2009,08,31,05,26,13.40
2009,08,31,05,27,13.40
2009,08,31,05,28,13.30
2009,08,31,05,29,13.30
2009,08,31,05,30,13.30
2009,08,31,05,31,13.30
2009,08,31,05,32,13.30
2009,08,31,05,33,13.20
2009,08,31,05,34,13.20
2009,08,31,05,35,13.20
2009,08,31,05,36,13.20
2009,08,31,05,37,13.20
2009,08,31,05,38,13.20
2009,08,31,05,39,13.20
2009,08,31,05,40,13.10
2009,08,31,05,41,13.10
2009,08,31,05,42,13.10
2009,08,31,05,43,13.10
2009,08,31,05,44,13.10
2009,08,31,05,45,13.10
2009,08,31,05,46,13.10
2009,08,31,05,47,13.10
2009,08,31,05,48,13.10
2009,08,31,05,49,13.10
2009,08,31,05,50,13.00
2009,08,31,05,51,13.00
2009,08,31,05,52,13.00
2009,08,31,05,53,13.00
2009,08,31,05,54,13.00
2009,08,31,05,55,13.00
2009,08,31,05,56,13.00
2009,08,31,05,57,13.00
2009,08,31,05,58,13.00
2009,08,31,05,59,12.90
2009,08,31,06,00,12.90
2009,08,31,06,01,12.90
2009,08,31,06,02,12.90
2009,08,31,06,03,12.90
2009,08,31,06,04,12.90
2009,08,31,06,05,12.90
2009,08,31,06,06,12.90
2009,08,31,06,07,12.90
2009,08,31,06,08,12.90
2009,08,31,06,09,12.90
2009,08,31,06,10,12.90
2009,08,31,06,11,12.90
2009,08,31,06,12,12.90
2009,08,31,06,13,12.90
2009,08,31,06,14,12.90
2009,08,31,06,15,12.80
2009,08,31,06,16,12.80
2009,08,31,06,17,12.80
2009,08,31,06,18,12.80
2009,08,31,06,19,12.80
2009,08,31,06,20,12.80
2009,08,31,06,21,12.80
2009,08,31,06,22,12.80
2009,08,31,06,23,12.80
2009,08,31,06,24,12.80
2009,08,31,06,25,12.80
2009,08,31,06,26,12.80
2009,08,31,06,27,12.80
2009,08,31,06,28,12.80
2009,08,31,06,29,12.80
2009,08,31,06,30,12.80
2009,08,31,06,31,12.80
2009,08,31,06,32,12.80
2009,08,31,06,33,12.70
2009,08,31,06,34,12.70
2009,08,31,06,35,12.70
2009,08,31,06,36,12.70
2009,08,31,06,37,12.70
2009,08,31,06,38,12.70
2009,08,31,06,39,12.70
2009,08,31,06,40,12.70
2009,08,31,06,41,12.70
2009,08,31,06,42,12.70
2009,08,31,06,43,12.70
2009,08,31,06,44,12.70
2009,08,31,06,45,12.70
2009,08,31,06,46,12.70
2009,08,31,06,47,12.70
2009,08,31,06,48,12.70
2009,08,31,06,49,12.70
2009,08,31,06,50,12.70
2009,08,31,06,51,12.70
2009,08,31,06,52,12.70
2009,08,31,06,53,12.70
2009,08,31,06,54,12.70
2009,08,31,06,55,12.70
2009,08,31,06,56,12.70
2009,08,31,06,57,12.70
2009,08,31,06,58,12.70
2009,08,31,06,59,12.70
2009,08,31,07,00,12.70
2009,08,31,07,01,12.70
2009,08,31,07,02,12.70
2009,08,31,07,03,12.70
2009,08,31,07,04,12.80
2009,08,31,07,05,12.80
2009,08,31,07,06,12.80
2009,08,31,07,07,12.80
2009,08,31,07,08,12.80
2009,08,31,07,09,12.80
2009,08,31,07,10,12.80
2009,08,31,07,11,12.90
2009,08,31,07,12,12.90
2009,08,31,07,13,12.90
2009,08,31,07,14,12.90
2009,08,31,07,15,13.00
2009,08,31,07,16,13.00
2009,08,31,07,17,13.00
2009,08,31,07,18,13.10
2009,08,31,07,19,13.10
2009,08,31,07,20,13.10
2009,08,31,07,21,13.10
2009,08,31,07,22,13.10
2009,08,31,07,23,13.10
2009,08,31,07,24,13.10
2009,08,31,07,25,13.10
2009,08,31,07,26,13.20
2009,08,31,07,27,13.20
2009,08,31,07,28,13.20
2009,08,31,07,29,13.20
2009,08,31,07,30,13.20
2009,08,31,07,31,13.20
2009,08,31,07,32,13.20
2009,08,31,07,33,13.20
2009,08,31,07,34,13.20
2009,08,31,07,35,13.20
2009,08,31,07,36,13.30
2009,08,31,07,37,13.30
2009,08,31,07,38,13.30
2009,08,31,07,39,13.30
2009,08,31,07,40,13.30
2009,08,31,07,41,13.30
2009,08,31,07,42,13.40
2009,08,31,07,43,13.40
2009,08,31,07,44,13.40
2009,08,31,07,45,13.40
2009,08,31,07,46,13.50
2009,08,31,07,47,13.60
2009,08,31,07,48,13.60
2009,08,31,07,49,13.60
2009,08,31,07,50,13.70
2009,08,31,07,51,13.80
2009,08,31,07,52,13.80
2009,08,31,07,53,13.90
2009,08,31,07,54,14.00
2009,08,31,07,55,14.10
2009,08,31,07,56,14.10
2009,08,31,07,57,14.20
2009,08,31,07,58,14.20
2009,08,31,07,59,14.30
2009,08,31,08,00,14.30
2009,08,31,08,01,14.30
2009,08,31,08,02,14.40
2009,08,31,08,03,14.50
2009,08,31,08,04,14.50
2009,08,31,08,05,14.50
2009,08,31,08,06,14.60
2009,08,31,08,07,14.60
2009,08,31,08,08,14.70
2009,08,31,08,09,14.70
2009,08,31,08,10,14.70
2009,08,31,08,11,14.70
2009,08,31,08,12,14.80
2009,08,31,08,13,14.80
2009,08,31,08,14,14.80
2009,08,31,08,15,14.80
2009,08,31,08,16,14.90
2009,08,31,08,17,14.90
2009,08,31,08,18,15.00
2009,08,31,08,19,15.00
2009,08,31,08,20,15.00
2009,08,31,08,21,15.00
2009,08,31,08,22,15.00
2009,08,31,08,23,15.00
2009,08,31,08,24,15.10
2009,08,31,08,25,15.20
2009,08,31,08,26,15.30
2009,08,31,08,27,15.40
2009,08,31,08,28,15.50
2009,08,31,08,29,15.60
2009,08,31,08,30,15.70
2009,08,31,08,31,15.70
2009,08,31,08,32,15.80
2009,08,31,08,33,15.80
2009,08,31,08,34,15.90
2009,08,31,08,35,15.90
2009,08,31,08,36,16.00
2009,08,31,08,37,16.00
2009,08,31,08,38,16.00
2009,08,31,08,39,16.10
2009,08,31,08,40,16.10
2009,08,31,08,41,16.10
2009,08,31,08,42,16.20
2009,08,31,08,43,16.20
2009,08,31,08,44,16.30
2009,08,31,08,45,16.30
2009,08,31,08,46,16.30
2009,08,31,08,47,16.40
2009,08,31,08,48,16.40
2009,08,31,08,49,16.40
2009,08,31,08,50,16.40
2009,08,31,08,51,16.50
2009,08,31,08,52,16.50
2009,08,31,08,53,16.60
2009,08,31,08,54,16.60
2009,08,31,08,55,16.60
2009,08,31,08,56,16.70
2009,08,31,08,57,16.70
2009,08,31,08,58,16.80
2009,08,31,08,59,16.90
2009,08,31,09,00,16.90
2009,08,31,09,01,17.00
2009,08,31,09,02,17.10
2009,08,31,09,03,17.10
2009,08,31,09,04,17.20
2009,08,31,09,05,17.30
2009,08,31,09,06,17.30
2009,08,31,09,07,17.40
2009,08,31,09,08,17.50
2009,08,31,09,09,17.50
2009,08,31,09,10,17.60
2009,08,31,09,11,17.60
2009,08,31,09,12,17.70
2009,08,31,09,13,17.70
2009,08,31,09,14,17.80
2009,08,31,09,15,17.80
2009,08,31,09,16,17.80
2009,08,31,09,17,17.90
2009,08,31,09,18,17.90
2009,08,31,09,19,17.90
2009,08,31,09,20,18.00
2009,08,31,09,21,18.00
2009,08,31,09,22,18.10
2009,08,31,09,23,18.10
2009,08,31,09,24,18.20
2009,08,31,09,25,18.20
2009,08,31,09,26,18.30
2009,08,31,09,27,18.30
2009,08,31,09,28,18.40
2009,08,31,09,29,18.50
2009,08,31,09,30,18.60
2009,08,31,09,31,18.70
2009,08,31,09,32,18.70
2009,08,31,09,33,18.80
2009,08,31,09,34,18.80
2009,08,31,09,35,18.90
2009,08,31,09,36,19.00
2009,08,31,09,37,19.00
2009,08,31,09,38,19.10
2009,08,31,09,39,19.10
2009,08,31,09,40,19.20
2009,08,31,09,41,19.20
2009,08,31,09,42,19.20
2009,08,31,09,43,19.20
2009,08,31,09,44,19.20
2009,08,31,09,45,19.20
2009,08,31,09,46,19.20
2009,08,31,09,47,19.20
2009,08,31,09,48,19.20
2009,08,31,09,49,19.20
2009,08,31,09,50,19.20
2009,08,31,09,51,19.20
2009,08,31,09,52,19.20
2009,08,31,09,53,19.10
2009,08,31,09,54,19.00
2009,08,31,09,55,18.90
2009,08,31,09,56,18.90
2009,08,31,09,57,18.90
2009,08,31,09,58,18.90
2009,08,31,09,59,18.90
2009,08,31,10,00,18.90
2009,08,31,10,01,18.90
2009,08,31,10,02,18.80
2009,08,31,10,03,18.80
2009,08,31,10,04,18.80
2009,08,31,10,05,18.80
2009,08,31,10,06,18.80
2009,08,31,10,07,18.90
2009,08,31,10,08,18.90
2009,08,31,10,09,18.90
2009,08,31,10,10,19.00
2009,08,31,10,11,19.10
2009,08,31,10,12,19.10
2009,08,31,10,13,19.20
2009,08,31,10,14,19.30
2009,08,31,10,15,19.40
2009,08,31,10,16,19.50
2009,08,31,10,17,19.50
2009,08,31,10,18,19.60
2009,08,31,10,19,19.70
2009,08,31,10,20,19.80
2009,08,31,10,21,19.90
2009,08,31,10,22,20.00
2009,08,31,10,23,20.00
2009,08,31,10,24,20.10
2009,08,31,10,25,20.10
2009,08,31,10,26,20.10
2009,08,31,10,27,20.10
2009,08,31,10,28,20.10
2009,08,31,10,29,20.20
2009,08,31,10,30,20.20
2009,08,31,10,31,20.20
2009,08,31,10,32,20.20
2009,08,31,10,33,20.20
2009,08,31,10,34,20.20
2009,08,31,10,35,20.20
2009,08,31,10,36,20.30
2009,08,31,10,37,20.40
2009,08,31,10,38,20.40
2009,08,31,10,39,20.50
2009,08,31,10,40,20.60
2009,08,31,10,41,20.60
2009,08,31,10,42,20.60
2009,08,31,10,43,20.60
2009,08,31,10,44,20.60
2009,08,31,10,45,20.60
2009,08,31,10,46,20.60
2009,08,31,10,47,20.60
2009,08,31,10,48,20.60
2009,08,31,10,49,20.60
2009,08,31,10,50,20.60
2009,08,31,10,51,20.60
2009,08,31,10,52,20.50
2009,08,31,10,53,20.50
2009,08,31,10,54,20.50
2009,08,31,10,55,20.50
2009,08,31,10,56,20.40
2009,08,31,10,57,20.30
2009,08,31,10,58,20.30
2009,08,31,10,59,20.30
2009,08,31,11,00,20.30
2009,08,31,11,01,20.30
2009,08,31,11,02,20.30
2009,08,31,11,03,20.30
2009,08,31,11,04,20.30
2009,08,31,11,05,20.30
2009,08,31,11,06,20.30
2009,08,31,11,07,20.40
2009,08,31,11,08,20.40
2009,08,31,11,09,20.30
2009,08,31,11,10,20.30
2009,08,31,11,11,20.30
2009,08,31,11,12,20.30
2009,08,31,11,13,20.40
2009,08,31,11,14,20.50
2009,08,31,11,15,20.60
2009,08,31,11,16,20.60
2009,08,31,11,17,20.60
2009,08,31,11,18,20.60
2009,08,31,11,19,20.60
2009,08,31,11,20,20.60
2009,08,31,11,21,20.60
2009,08,31,11,22,20.60
2009,08,31,11,23,20.70
2009,08,31,11,24,20.70
2009,08,31,11,25,20.70
2009,08,31,11,26,20.70
2009,08,31,11,27,20.80
2009,08,31,11,28,20.80
2009,08,31,11,29,20.80
2009,08,31,11,30,20.80
2009,08,31,11,31,20.70
2009,08,31,11,32,20.70
2009,08,31,11,33,20.70
2009,08,31,11,34,20.70
2009,08,31,11,35,20.70
2009,08,31,11,36,20.70
2009,08,31,11,37,20.70
2009,08,31,11,38,20.70
2009,08,31,11,39,20.70
2009,08,31,11,40,20.70
2009,08,31,11,41,20.80
2009,08,31,11,42,20.80
2009,08,31,11,43,20.90
2009,08,31,11,44,20.90
2009,08,31,11,45,20.90
2009,08,31,11,46,21.00
2009,08,31,11,47,21.00
2009,08,31,11,48,21.00
2009,08,31,11,49,21.00
2009,08,31,11,50,21.00
2009,08,31,11,51,20.90
2009,08,31,11,52,20.90
2009,08,31,11,53,21.00
2009,08,31,11,54,21.00
2009,08,31,11,55,21.10
2009,08,31,11,56,21.20
2009,08,31,11,57,21.30
2009,08,31,11,58,21.30
2009,08,31,11,59,21.30
2009,08,31,12,00,21.30
2009,08,31,12,01,21.30
2009,08,31,12,02,21.40
2009,08,31,12,03,21.40
2009,08,31,12,04,21.40
2009,08,31,12,05,21.40
2009,08,31,12,06,21.40
2009,08,31,12,07,21.40
2009,08,31,12,08,21.30
2009,08,31,12,09,21.30
2009,08,31,12,10,21.20
2009,08,31,12,11,21.10
2009,08,31,12,12,21.10
2009,08,31,12,13,21.00
2009,08,31,12,14,21.00
2009,08,31,12,15,21.00
2009,08,31,12,16,21.00
2009,08,31,12,17,20.90
2009,08,31,12,18,20.80
2009,08,31,12,19,20.80
2009,08,31,12,20,20.80
2009,08,31,12,21,20.80
2009,08,31,12,22,20.80
2009,08,31,12,23,20.80
2009,08,31,12,24,20.80
2009,08,31,12,25,20.80
2009,08,31,12,26,20.70
2009,08,31,12,27,20.70
2009,08,31,12,28,20.70
2009,08,31,12,29,20.70
2009,08,31,12,30,20.70
2009,08,31,12,31,20.60
2009,08,31,12,32,20.60
2009,08,31,12,33,20.60
2009,08,31,12,34,20.60
2009,08,31,12,35,20.60
2009,08,31,12,36,20.60
2009,08,31,12,37,20.60
2009,08,31,12,38,20.60
2009,08,31,12,39,20.60
2009,08,31,12,40,20.70
2009,08,31,12,41,20.70
2009,08,31,12,42,20.80
2009,08,31,12,43,20.80
2009,08,31,12,44,20.90
2009,08,31,12,45,20.90
2009,08,31,12,46,20.90
2009,08,31,12,47,20.90
2009,08,31,12,48,20.90
2009,08,31,12,49,20.80
2009,08,31,12,50,20.80
2009,08,31,12,51,20.90
2009,08,31,12,52,20.90
2009,08,31,12,53,20.90
2009,08,31,12,54,21.00
2009,08,31,12,55,21.10
2009,08,31,12,56,21.10
2009,08,31,12,57,21.10
2009,08,31,12,58,21.00
2009,08,31,12,59,21.00
2009,08,31,13,00,21.10
2009,08,31,13,01,21.10
2009,08,31,13,02,21.00
2009,08,31,13,03,21.00
2009,08,31,13,04,21.00
2009,08,31,13,05,21.00
2009,08,31,13,06,21.00
2009,08,31,13,07,20.90
2009,08,31,13,08,20.90
2009,08,31,13,09,20.80
2009,08,31,13,10,20.80
2009,08,31,13,11,20.70
2009,08,31,13,12,20.70
2009,08,31,13,13,20.70
2009,08,31,13,14,20.70
2009,08,31,13,15,20.70
2009,08,31,13,16,20.70
2009,08,31,13,17,20.70
2009,08,31,13,18,20.80
2009,08,31,13,19,20.80
2009,08,31,13,20,20.80
2009,08,31,13,21,20.90
2009,08,31,13,22,21.00
2009,08,31,13,23,21.00
2009,08,31,13,24,21.00
2009,08,31,13,25,21.00
2009,08,31,13,26,21.00
2009,08,31,13,27,21.00
2009,08,31,13,28,21.10
2009,08,31,13,29,21.10
2009,08,31,13,30,21.10
2009,08,31,13,31,21.10
2009,08,31,13,32,21.20
2009,08,31,13,33,21.20
2009,08,31,13,34,21.20
2009,08,31,13,35,21.20
2009,08,31,13,36,21.10
2009,08,31,13,37,21.10
2009,08,31,13,38,21.00
2009,08,31,13,39,20.90
2009,08,31,13,40,20.90
2009,08,31,13,41,20.80
2009,08,31,13,42,20.80
2009,08,31,13,43,20.80
2009,08,31,13,44,20.80
2009,08,31,13,45,20.90
2009,08,31,13,46,21.00
2009,08,31,13,47,21.10
2009,08,31,13,48,21.20
2009,08,31,13,49,21.20
2009,08,31,13,50,21.10
2009,08,31,13,51,21.10
2009,08,31,13,52,21.10
2009,08,31,13,53,21.00
2009,08,31,13,54,21.00
2009,08,31,13,55,21.00
2009,08,31,13,56,21.00
2009,08,31,13,57,21.10
2009,08,31,13,58,21.00
2009,08,31,13,59,20.90
2009,08,31,14,00,20.80
2009,08,31,14,01,20.80
2009,08,31,14,02,20.80
2009,08,31,14,03,20.80
2009,08,31,14,04,20.80
2009,08,31,14,05,20.80
2009,08,31,14,06,20.90
2009,08,31,14,07,21.00
2009,08,31,14,08,21.00
2009,08,31,14,09,21.10
2009,08,31,14,10,21.20
2009,08,31,14,11,21.20
2009,08,31,14,12,21.30
2009,08,31,14,13,21.40
2009,08,31,14,14,21.50
2009,08,31,14,15,21.60
2009,08,31,14,16,21.60
2009,08,31,14,17,21.60
2009,08,31,14,18,21.70
2009,08,31,14,19,21.70
2009,08,31,14,20,21.80
2009,08,31,14,21,21.90
2009,08,31,14,22,22.00
2009,08,31,14,23,22.00
2009,08,31,14,24,22.10
2009,08,31,14,25,22.10
2009,08,31,14,26,22.20
2009,08,31,14,27,22.20
2009,08,31,14,28,22.30
2009,08,31,14,29,22.30
2009,08,31,14,30,22.40
2009,08,31,14,31,22.50
2009,08,31,14,32,22.60
2009,08,31,14,33,22.70
2009,08,31,14,34,22.80
2009,08,31,14,35,22.80
2009,08,31,14,36,22.90
2009,08,31,14,37,22.90
2009,08,31,14,38,22.90
2009,08,31,14,39,22.90
2009,08,31,14,40,22.80
2009,08,31,14,41,22.80
2009,08,31,14,42,22.80
2009,08,31,14,43,22.80
2009,08,31,14,44,22.80
2009,08,31,14,45,22.80
2009,08,31,14,46,22.80
2009,08,31,14,47,22.70
2009,08,31,14,48,22.70
2009,08,31,14,49,22.70
2009,08,31,14,50,22.70
2009,08,31,14,51,22.70
2009,08,31,14,52,22.70
2009,08,31,14,53,22.80
2009,08,31,14,54,22.80
2009,08,31,14,55,22.90
2009,08,31,14,56,23.00
2009,08,31,14,57,23.10
2009,08,31,14,58,23.10
2009,08,31,14,59,23.10
2009,08,31,15,00,23.10
2009,08,31,15,01,23.10
2009,08,31,15,02,23.10
2009,08,31,15,03,23.10
2009,08,31,15,04,23.00
2009,08,31,15,05,22.90
2009,08,31,15,06,22.80
2009,08,31,15,07,22.90
2009,08,31,15,08,22.80
2009,08,31,15,09,22.70
2009,08,31,15,10,22.70
2009,08,31,15,11,22.70
2009,08,31,15,12,22.70
2009,08,31,15,13,22.70
2009,08,31,15,14,22.80
2009,08,31,15,15,22.80
2009,08,31,15,16,22.80
2009,08,31,15,17,22.90
2009,08,31,15,18,22.90
2009,08,31,15,19,22.90
2009,08,31,15,20,22.90
2009,08,31,15,21,22.90
2009,08,31,15,22,22.90
2009,08,31,15,23,22.90
2009,08,31,15,24,23.00
2009,08,31,15,25,23.00
2009,08,31,15,26,23.10
2009,08,31,15,27,23.20
2009,08,31,15,28,23.20
2009,08,31,15,29,23.10
2009,08,31,15,30,23.00
2009,08,31,15,31,23.00
2009,08,31,15,32,23.00
2009,08,31,15,33,23.10
2009,08,31,15,34,23.10
2009,08,31,15,35,23.10
2009,08,31,15,36,23.10
2009,08,31,15,37,23.00
2009,08,31,15,38,22.90
2009,08,31,15,39,22.90
2009,08,31,15,40,22.90
2009,08,31,15,41,22.90
2009,08,31,15,42,22.80
2009,08,31,15,43,22.90
2009,08,31,15,44,23.00
2009,08,31,15,45,23.00
2009,08,31,15,46,23.00
2009,08,31,15,47,23.00
2009,08,31,15,48,22.90
2009,08,31,15,49,22.90
2009,08,31,15,50,22.80
2009,08,31,15,51,22.70
2009,08,31,15,52,22.70
2009,08,31,15,53,22.80
2009,08,31,15,54,22.80
2009,08,31,15,55,22.80
2009,08,31,15,56,22.70
2009,08,31,15,57,22.70
2009,08,31,15,58,22.80
2009,08,31,15,59,22.90
2009,08,31,16,00,22.90
2009,08,31,16,01,23.00
2009,08,31,16,02,23.00
2009,08,31,16,03,23.00
2009,08,31,16,04,23.10
2009,08,31,16,05,23.10
2009,08,31,16,06,23.20
2009,08,31,16,07,23.30
2009,08,31,16,08,23.30
2009,08,31,16,09,23.40
2009,08,31,16,10,23.40
2009,08,31,16,11,23.40
2009,08,31,16,12,23.40
2009,08,31,16,13,23.50
2009,08,31,16,14,23.50
2009,08,31,16,15,23.40
2009,08,31,16,16,23.40
2009,08,31,16,17,23.30
2009,08,31,16,18,23.20
2009,08,31,16,19,23.10
2009,08,31,16,20,23.00
2009,08,31,16,21,22.90
2009,08,31,16,22,22.80
2009,08,31,16,23,22.80
2009,08,31,16,24,22.80
2009,08,31,16,25,22.70
2009,08,31,16,26,22.60
2009,08,31,16,27,22.60
2009,08,31,16,28,22.60
2009,08,31,16,29,22.60
2009,08,31,16,30,22.60
2009,08,31,16,31,22.60
2009,08,31,16,32,22.60
2009,08,31,16,33,22.50
2009,08,31,16,34,22.40
2009,08,31,16,35,22.30
2009,08,31,16,36,22.30
2009,08,31,16,37,22.30
2009,08,31,16,38,22.40
2009,08,31,16,39,22.40
2009,08,31,16,40,22.50
2009,08,31,16,41,22.50
2009,08,31,16,42,22.60
2009,08,31,16,43,22.60
2009,08,31,16,44,22.60
2009,08,31,16,45,22.70
2009,08,31,16,46,22.70
2009,08,31,16,47,22.80
2009,08,31,16,48,22.80
2009,08,31,16,49,22.80
2009,08,31,16,50,22.80
2009,08,31,16,51,22.80
2009,08,31,16,52,22.90
2009,08,31,16,53,22.90
2009,08,31,16,54,22.90
2009,08,31,16,55,22.90
2009,08,31,16,56,22.80
2009,08,31,16,57,22.80
2009,08,31,16,58,22.80
2009,08,31,16,59,22.80
2009,08,31,17,00,22.80
2009,08,31,17,01,22.70
2009,08,31,17,02,22.70
2009,08,31,17,03,22.70
2009,08,31,17,04,22.70
2009,08,31,17,05,22.60
2009,08,31,17,06,22.60
2009,08,31,17,07,22.60
2009,08,31,17,08,22.60
2009,08,31,17,09,22.60
2009,08,31,17,10,22.70
2009,08,31,17,11,22.70
2009,08,31,17,12,22.70
2009,08,31,17,13,22.70
2009,08,31,17,14,22.60
2009,08,31,17,15,22.60
2009,08,31,17,16,22.50
2009,08,31,17,17,22.40
2009,08,31,17,18,22.40
2009,08,31,17,19,22.40